W7KKE-3 Weather Reports


Display with metric or nautical units.
time (UTC)temp
F
wind
direction
speed
MPH
gust
MPH
rain 1hr
in
rain 24hr
in
rain mn
in
humidity
%
barometer
mb
20211130051450 53 196 0.0 2.0 0.00 0.52 0.33 87 1025.0
20211130050951 53 89 0.0 1.0 0.00 0.52 0.33 87 1024.9
20211130050451 53 89 0.0 1.0 0.00 0.52 0.33 86 1024.8
20211130045451 53 0 0.0 0.0 0.00 0.54 0.33 86 1024.9
20211130044950 54 131 0.0 4.0 0.00 0.54 0.33 88 1024.9
20211130044450 54 141 0.0 4.0 0.00 0.54 0.33 88 1025.1
20211130043951 54 113 1.0 1.0 0.00 0.54 0.33 88 1025.1
20211130043451 54 0 0.0 5.0 0.00 0.54 0.33 88 1025.3
20211130042951 54 137 0.0 5.0 0.00 0.54 0.33 88 1025.2
20211130041950 53 0 0.0 2.0 0.00 0.54 0.33 88 1024.9
20211130041450 53 161 0.0 3.0 0.00 0.54 0.33 87 1024.8
20211130040951 53 159 0.0 3.0 0.00 0.54 0.33 88 1024.7
20211130040450 53 179 0.0 3.0 0.00 0.54 0.33 87 1024.6
20211130035950 53 179 0.0 3.0 0.00 0.54 0.33 88 1024.5
20211130035453 53 0 0.0 3.0 0.00 0.54 0.33 87 1024.5
20211130034950 53 0 0.0 3.0 0.00 0.54 0.33 86 1024.5
20211130034450 53 0 0.0 4.0 0.00 0.54 0.33 87 1024.5
20211130033951 54 0 0.0 4.0 0.00 0.54 0.33 88 1024.5
20211130033450 54 168 0.0 4.0 0.00 0.54 0.33 87 1024.7
20211130032950 54 168 0.0 4.0 0.00 0.54 0.33 87 1024.7
20211130032451 54 0 0.0 0.0 0.00 0.54 0.33 88 1024.9
20211130031950 54 0 0.0 0.0 0.00 0.54 0.33 88 1025.0
20211130031450 54 154 0.0 1.0 0.00 0.54 0.33 88 1025.0
20211130030951 54 0 0.0 1.0 0.00 0.54 0.33 87 1025.0
20211130030450 54 131 0.0 1.0 0.00 0.54 0.33 87 1025.0
20211130025950 54 144 0.0 2.0 0.00 0.54 0.33 86 1024.9
20211130025451 55 149 0.0 2.0 0.00 0.54 0.33 87 1024.9
20211130024950 55 207 0.0 2.0 0.00 0.54 0.33 88 1024.9
20211130024450 55 138 0.0 4.0 0.00 0.54 0.33 87 1024.8
20211130023951 55 173 0.0 4.0 0.00 0.54 0.33 87 1024.9
20211130023450 55 173 0.0 4.0 0.00 0.54 0.33 88 1024.9
20211130022950 55 162 0.0 3.0 0.00 0.54 0.33 87 1025.1
20211130022451 55 162 0.0 3.0 0.00 0.54 0.33 88 1024.9
20211130021950 55 0 0.0 1.0 0.00 0.54 0.33 88 1024.8
20211130021450 55 0 0.0 0.0 0.00 0.54 0.33 87 1024.9
20211130020951 55 0 0.0 0.0 0.00 0.54 0.33 88 1024.7
20211130020450 55 0 0.0 0.0 0.00 0.54 0.33 88 1024.9
20211130015950 55 0 0.0 0.0 0.00 0.54 0.33 88 1025.1
20211130015451 55 0 0.0 0.0 0.00 0.54 0.33 88 1025.2
20211130014950 55 0 0.0 5.0 0.00 0.54 0.33 88 1025.3
20211130014450 56 133 0.0 5.0 0.00 0.54 0.33 88 1025.3
20211130013956 56 137 0.0 0.0 0.00 0.54 0.33 88 1025.2
20211130013951 56 137 0.0 5.0 0.00 0.54 0.33 88 1025.2
20211130013450 56 161 0.0 4.0 0.00 0.54 0.33 88 1025.1
20211130012950 56 159 0.0 4.0 0.00 0.54 0.33 88 1025.3
20211130012451 56 141 1.0 4.0 0.00 0.54 0.33 88 1025.2
20211130011950 56 148 1.0 4.0 0.00 0.54 0.33 89 1025.3
20211130011450 56 152 2.0 4.0 0.00 0.54 0.33 88 1025.4
20211130010951 56 152 0.0 4.0 0.00 0.54 0.33 88 1025.5
20211130010450 56 187 2.0 3.0 0.00 0.54 0.33 88 1025.4
20211130005950 56 187 0.0 3.0 0.00 0.54 0.33 88 1025.4
20211130005451 56 0 0.0 0.0 0.00 0.54 0.33 89 1025.4
20211130004950 56 0 0.0 0.0 0.00 0.54 0.33 88 1025.4
20211130004450 55 0 0.0 0.0 0.00 0.54 0.33 88 1025.4
20211130003951 55 231 0.0 8.0 0.00 0.54 0.33 88 1025.6
20211130003450 55 173 0.0 8.0 0.00 0.54 0.33 88 1025.6
20211130002950 55 177 3.0 8.0 0.00 0.54 0.33 88 1025.4
20211130002451 55 205 2.0 6.0 0.00 0.54 0.33 88 1025.4
20211130001950 55 205 1.0 6.0 0.00 0.54 0.33 88 1025.5
20211130001450 55 217 2.0 6.0 0.00 0.54 0.33 87 1025.5
20211130000955 55 239 1.0 0.0 0.00 0.54 0.33 88 1025.6
20211130000950 55 239 1.0 3.0 0.00 0.54 0.33 88 1025.6
20211130000451 56 208 1.0 4.0 0.00 0.54 0.33 88 1025.7
20211129235950 56 201 0.0 4.0 0.00 0.54 0.33 88 1025.7
20211129235451 56 201 1.0 4.0 0.00 0.54 0.33 87 1025.7
20211129234950 56 0 1.0 2.0 0.00 0.54 0.33 88 1025.8
20211129234450 56 0 0.0 4.0 0.00 0.54 0.33 88 1025.6
20211129233950 56 0 0.0 4.0 0.00 0.54 0.33 89 1025.5
20211129233450 56 0 0.0 4.0 0.00 0.54 0.33 88 1025.6
20211129232950 56 205 0.0 8.0 0.00 0.54 0.33 88 1025.7
20211129232451 56 196 4.0 8.0 0.00 0.54 0.33 88 1025.6
20211129231950 56 210 0.0 8.0 0.00 0.54 0.33 88 1025.4
20211129231450 56 238 6.0 7.0 0.00 0.54 0.33 89 1025.4
20211129230950 56 215 4.0 7.0 0.00 0.54 0.33 88 1025.5
20211129230450 56 221 1.0 5.0 0.00 0.54 0.33 88 1025.5
20211129225950 56 203 3.0 5.0 0.00 0.54 0.33 88 1025.5
20211129225528 56 197 0.0 9.0 0.00 0.54 0.33 88 1025.4
20211129225451 56 197 0.0 9.0 0.00 0.54 0.33 88 1025.4
20211129224950 56 214 0.0 9.0 0.00 0.54 0.33 88 1025.4
20211129224450 56 225 1.0 9.0 0.00 0.54 0.33 88 1025.4
20211129223950 56 228 2.0 10.0 0.00 0.54 0.33 88 1025.4
20211129223450 56 221 0.0 10.0 0.00 0.54 0.33 88 1025.5
20211129222950 56 221 1.0 10.0 0.00 0.54 0.33 88 1025.5
20211129222451 56 224 4.0 9.0 0.00 0.54 0.33 88 1025.6
20211129221950 55 224 3.0 9.0 0.00 0.54 0.33 88 1025.6
20211129221450 55 222 4.0 9.0 0.00 0.54 0.33 88 1025.6
20211129220950 55 219 6.0 9.0 0.00 0.54 0.33 88 1025.6
20211129220450 55 233 4.0 9.0 0.00 0.54 0.33 88 1025.6
20211129215950 55 229 4.0 11.0 0.00 0.54 0.33 88 1025.5
20211129215451 55 186 6.0 11.0 0.00 0.54 0.33 88 1025.5
20211129214950 55 229 5.0 11.0 0.00 0.54 0.33 88 1025.5
20211129214450 55 224 4.0 10.0 0.00 0.54 0.33 88 1025.6
20211129213950 55 238 5.0 10.0 0.00 0.54 0.33 88 1025.6
20211129213450 55 180 4.0 10.0 0.00 0.54 0.33 88 1025.7
20211129212950 55 218 3.0 10.0 0.00 0.54 0.33 89 1025.7
20211129212451 55 219 2.0 9.0 0.01 0.54 0.33 89 1025.7
20211129211950 55 232 5.0 8.0 0.01 0.54 0.33 88 1025.9
20211129211450 55 232 4.0 8.0 0.01 0.54 0.33 87 1026.0
20211129210950 55 257 0.0 4.0 0.01 0.54 0.33 88 1026.0
20211129210450 55 257 1.0 9.0 0.01 0.54 0.33 87 1026.0
20211129205950 55 225 1.0 9.0 0.01 0.53 0.33 88 1026.0
20211129205451 55 225 4.0 9.0 0.02 0.53 0.33 88 1026.0
20211129204950 55 207 5.0 11.0 0.02 0.53 0.33 87 1025.9
20211129204450 55 204 3.0 11.0 0.02 0.53 0.33 87 1025.9
20211129203950 55 219 3.0 11.0 0.02 0.53 0.33 87 1025.9
20211129203450 56 205 5.0 10.0 0.02 0.53 0.33 88 1026.0
20211129202950 56 186 6.0 10.0 0.02 0.53 0.33 88 1026.1
20211129202451 56 229 6.0 8.0 0.01 0.53 0.33 87 1026.2
20211129202120 56 211 5.0 8.0 0.01 0.53 0.33 87 1026.2
20211129201950 56 211 5.0 8.0 0.01 0.53 0.33 87 1026.2
20211129201451 56 224 3.0 7.0 0.01 0.53 0.32 88 1026.1
20211129200950 56 226 3.0 9.0 0.01 0.53 0.32 88 1026.3
20211129200450 56 232 2.0 9.0 0.01 0.52 0.32 88 1026.3
20211129195950 56 232 4.0 9.0 0.01 0.52 0.32 87 1026.2
20211129195451 56 225 5.0 6.0 0.01 0.52 0.32 88 1026.3
20211129194951 56 225 0.0 6.0 0.01 0.52 0.32 88 1026.3
20211129194450 56 235 2.0 8.0 0.01 0.52 0.31 88 1026.3
20211129194022 56 235 0.0 8.0 0.01 0.52 0.31 88 1026.4
20211129193950 56 235 0.0 8.0 0.01 0.52 0.31 88 1026.4
20211129193450 56 226 1.0 7.0 0.01 0.52 0.31 87 1026.4
20211129192950 56 233 3.0 6.0 0.01 0.52 0.31 88 1026.5
20211129192451 56 210 3.0 7.0 0.01 0.52 0.31 88 1026.5
20211129191950 56 233 1.0 7.0 0.01 0.52 0.31 87 1026.5
20211129191450 56 194 1.0 7.0 0.01 0.52 0.31 87 1026.6
20211129190950 56 205 4.0 6.0 0.01 0.52 0.31 87 1026.7
20211129190450 56 212 1.0 6.0 0.01 0.51 0.31 87 1026.8
20211129185950 56 229 2.0 5.0 0.01 0.51 0.31 88 1026.9
20211129185451 56 218 0.0 5.0 0.00 0.51 0.31 87 1026.8
20211129184950 56 228 1.0 5.0 0.00 0.51 0.31 87 1026.9
20211129184451 56 0 3.0 3.0 0.00 0.51 0.30 86 1026.9
20211129183950 56 0 0.0 0.0 0.00 0.51 0.30 87 1027.0
20211129183450 56 0 0.0 0.0 0.00 0.51 0.30 87 1026.9
20211129182950 56 0 0.0 0.0 0.00 0.51 0.30 87 1026.9
20211129182451 56 0 0.0 0.0 0.00 0.51 0.30 86 1026.8
20211129181950 56 0 0.0 0.0 0.00 0.51 0.30 87 1026.7
20211129181450 56 0 0.0 0.0 0.00 0.51 0.30 87 1026.7
20211129180950 56 0 0.0 0.0 0.00 0.51 0.30 88 1026.6
20211129180450 56 0 0.0 0.0 0.00 0.51 0.30 86 1026.5
20211129175950 56 0 0.0 0.0 0.00 0.51 0.30 86 1026.5
20211129175452 56 0 0.0 0.0 0.00 0.51 0.30 86 1026.3
20211129174950 56 0 0.0 0.0 0.00 0.51 0.30 87 1026.2
20211129174450 56 0 0.0 0.0 0.00 0.51 0.30 87 1026.2
20211129173950 56 0 0.0 0.0 0.00 0.51 0.30 87 1026.1
20211129173450 56 0 0.0 0.0 0.00 0.51 0.30 87 1026.1
20211129172950 56 0 0.0 0.0 0.00 0.51 0.30 88 1026.0
20211129172451 56 0 0.0 4.0 0.00 0.51 0.30 87 1025.9
20211129171950 56 243 0.0 4.0 0.00 0.51 0.30 87 1025.8
20211129171450 55 207 0.0 4.0 0.00 0.51 0.30 88 1025.6
20211129170950 55 207 2.0 4.0 0.00 0.51 0.30 87 1025.5
20211129170450 55 0 0.0 0.0 0.00 0.51 0.30 87 1025.5
20211129165950 55 0 0.0 0.0 0.00 0.51 0.30 86 1025.4
20211129165450 55 0 0.0 0.0 0.00 0.51 0.30 87 1025.3
20211129164950 55 0 0.0 0.0 0.00 0.51 0.30 86 1025.1
20211129164450 55 0 0.0 0.0 0.00 0.51 0.30 87 1025.1
20211129163951 55 0 0.0 0.0 0.00 0.51 0.30 87 1025.1
20211129163450 55 0 0.0 0.0 0.00 0.51 0.30 87 1025.1
20211129162950 55 0 0.0 3.0 0.00 0.51 0.30 87 1025.0
20211129162452 55 138 0.0 3.0 0.00 0.51 0.30 87 1024.8
20211129161950 55 165 0.0 3.0 0.00 0.51 0.30 87 1024.6
20211129161450 55 137 0.0 3.0 0.00 0.51 0.30 86 1024.5
20211129160950 55 113 0.0 3.0 0.00 0.51 0.30 86 1024.4
20211129160450 55 138 0.0 3.0 0.01 0.51 0.30 86 1024.4
20211129155950 55 193 0.0 5.0 0.01 0.51 0.30 86 1024.3
20211129155450 54 126 0.0 5.0 0.03 0.51 0.30 87 1024.2
20211129154950 54 116 1.0 5.0 0.03 0.51 0.30 86 1024.0
20211129154450 54 116 1.0 5.0 0.03 0.51 0.30 86 1023.8
20211129153950 54 141 0.0 3.0 0.07 0.51 0.30 88 1023.9
20211129153450 54 140 2.0 9.0 0.11 0.51 0.30 86 1023.8
20211129152950 54 170 0.0 9.0 0.11 0.51 0.30 86 1023.8
20211129152450 55 154 2.0 9.0 0.11 0.51 0.30 86 1024.0
20211129151949 54 217 1.0 7.0 0.11 0.51 0.30 88 1024.1
20211129151451 54 182 3.0 6.0 0.11 0.51 0.30 86 1024.1
20211129150950 54 219 2.0 6.0 0.11 0.51 0.30 86 1024.2
20211129150450 54 225 3.0 6.0 0.10 0.40 0.30 86 1024.4
20211129145949 54 210 1.0 6.0 0.10 0.40 0.29 86 1025.6
20211129145450 54 176 1.0 6.0 0.08 0.40 0.29 86 1025.5
20211129144949 54 198 2.0 4.0 0.08 0.40 0.29 86 1025.2
20211129144450 54 249 1.0 7.0 0.05 0.40 0.27 86 1025.6
20211129143950 54 261 1.0 7.0 0.05 0.40 0.25 87 1025.9
20211129143449 54 242 0.0 7.0 0.01 0.40 0.22 87 1026.1
20211129142950 54 225 3.0 13.0 0.01 0.40 0.19 87 1026.2
20211129142450 54 228 0.0 13.0 0.01 0.40 0.19 86 1025.8
20211129141949 54 228 7.0 13.0 0.01 0.40 0.19 86 1025.6
20211129141449 54 250 7.0 7.0 0.01 0.40 0.19 86 1025.6
20211129140950 54 225 2.0 14.0 0.01 0.40 0.19 86 1025.6
20211129140449 54 214 4.0 14.0 0.01 0.39 0.19 86 1025.4
20211129135949 54 204 3.0 14.0 0.01 0.39 0.19 86 1025.2
20211129135452 54 134 1.0 10.0 0.02 0.39 0.19 86 1025.4
20211129134949 54 203 3.0 16.0 0.02 0.39 0.19 86 1024.8
20211129134449 54 219 4.0 16.0 0.01 0.39 0.19 86 1025.2
20211129133950 54 208 3.0 16.0 0.01 0.39 0.19 87 1025.3
20211129133449 54 205 4.0 14.0 0.01 0.39 0.18 86 1025.3
20211129132949 54 228 2.0 14.0 0.01 0.39 0.18 86 1025.2
20211129132450 54 211 5.0 13.0 0.02 0.39 0.18 86 1025.2
20211129131949 54 226 2.0 11.0 0.02 0.39 0.18 87 1025.0
20211129131449 54 208 7.0 12.0 0.02 0.39 0.18 87 1025.1
20211129130950 54 235 7.0 12.0 0.02 0.39 0.18 87 1025.1
20211129130449 54 235 5.0 12.0 0.02 0.39 0.18 86 1024.9
20211129125949 54 210 4.0 11.0 0.03 0.37 0.18 87 1024.9
20211129125450 54 173 6.0 11.0 0.02 0.37 0.18 87 1024.8
20211129124949 54 240 5.0 14.0 0.02 0.37 0.17 87 1024.8
20211129124449 54 249 6.0 14.0 0.02 0.37 0.17 87 1024.8
20211129123950 54 222 7.0 14.0 0.02 0.37 0.17 86 1024.8
20211129123449 54 232 8.0 12.0 0.03 0.37 0.17 86 1024.7
20211129122950 55 208 6.0 12.0 0.03 0.37 0.17 86 1024.8
20211129122450 55 222 3.0 13.0 0.04 0.37 0.17 86 1024.8
20211129121949 55 221 4.0 13.0 0.04 0.37 0.17 86 1024.7
20211129121449 55 190 1.0 13.0 0.05 0.37 0.16 87 1024.7
20211129120950 55 221 4.0 13.0 0.05 0.37 0.16 86 1024.6
20211129120449 55 247 1.0 13.0 0.04 0.32 0.16 86 1024.6
20211129115949 55 217 6.0 13.0 0.04 0.32 0.15 86 1024.6
20211129115450 55 204 3.0 12.0 0.04 0.32 0.15 86 1024.4
20211129114949 55 191 3.0 12.0 0.04 0.32 0.15 87 1024.4
20211129114449 55 184 7.0 11.0 0.05 0.32 0.15 86 1024.3
20211129113950 54 184 2.0 11.0 0.05 0.32 0.15 86 1024.3
20211129113449 54 211 6.0 15.0 0.04 0.32 0.15 86 1024.3
20211129112949 54 225 4.0 15.0 0.04 0.32 0.14 86 1024.5
20211129112450 54 219 11.0 14.0 0.04 0.32 0.14 86 1024.6
20211129111951 55 231 6.0 13.0 0.04 0.32 0.12 86 1024.6
20211129111449 55 214 6.0 11.0 0.04 0.32 0.11 87 1024.7
20211129110950 55 221 3.0 9.0 0.04 0.32 0.11 86 1024.7
20211129110449 55 217 1.0 9.0 0.05 0.28 0.11 86 1024.6
20211129105949 55 212 6.0 8.0 0.05 0.28 0.11 87 1024.6
20211129105450 54 214 4.0 14.0 0.06 0.28 0.11 86 1024.6
20211129104949 54 224 3.0 14.0 0.06 0.28 0.11 86 1024.6
20211129104449 54 212 8.0 14.0 0.05 0.28 0.11 86 1024.7
20211129103950 54 190 7.0 13.0 0.05 0.28 0.11 86 1024.7
20211129103449 54 224 6.0 11.0 0.05 0.28 0.10 86 1024.7
20211129102950 54 238 7.0 11.0 0.05 0.28 0.10 86 1024.8
20211129102450 54 238 0.0 11.0 0.05 0.28 0.10 86 1024.8
20211129101949 54 190 3.0 11.0 0.04 0.28 0.09 86 1024.9
20211129101449 54 218 6.0 11.0 0.03 0.28 0.08 86 1025.0
20211129100951 54 215 3.0 8.0 0.03 0.28 0.08 86 1024.9
20211129100449 54 191 4.0 7.0 0.02 0.25 0.07 86 1024.9
20211129095949 54 254 4.0 7.0 0.02 0.25 0.07 86 1024.9
20211129095450 55 215 2.0 7.0 0.01 0.25 0.06 86 1024.8
20211129094949 55 226 3.0 7.0 0.01 0.25 0.06 87 1024.7
20211129094449 55 197 3.0 6.0 0.01 0.25 0.05 86 1024.7
20211129093950 55 201 0.0 9.0 0.01 0.25 0.05 86 1024.6
20211129093449 55 169 1.0 9.0 0.02 0.25 0.05 86 1024.3
20211129092949 55 207 0.0 9.0 0.02 0.25 0.05 86 1024.2
20211129092450 55 154 3.0 7.0 0.03 0.25 0.05 86 1024.2
20211129091949 55 207 0.0 7.0 0.03 0.25 0.04 86 1024.1
20211129091449 55 208 4.0 12.0 0.03 0.25 0.04 86 1024.2
20211129090950 55 224 0.0 12.0 0.03 0.25 0.04 86 1024.2
20211129090449 55 217 3.0 12.0 0.04 0.22 0.04 86 1024.1
20211129085949 55 207 5.0 10.0 0.04 0.22 0.04 86 1024.2
20211129085450 55 191 6.0 10.0 0.04 0.22 0.04 86 1024.3
20211129084949 55 169 2.0 14.0 0.04 0.22 0.04 86 1024.5
20211129084449 55 200 2.0 14.0 0.06 0.22 0.04 86 1024.6
20211129083950 55 235 5.0 14.0 0.06 0.22 0.04 86 1024.7
20211129083522 55 218 3.0 15.0 0.07 0.22 0.04 86 1024.7
20211129083449 55 218 3.0 15.0 0.07 0.22 0.04 86 1024.7
20211129082450 55 218 4.0 15.0 0.06 0.22 0.03 86 1024.9
20211129081949 55 211 5.0 8.0 0.06 0.22 0.02 84 1024.8
20211129081449 55 208 3.0 7.0 0.08 0.22 0.01 84 1024.8
20211129080950 55 205 3.0 5.0 0.08 0.22 0.01 85 1024.8
20211129080449 55 246 3.0 9.0 0.08 0.22 0.01 84 1024.7
20211129075949 55 215 0.0 9.0 0.08 0.22 0.22 85 1024.6
20211129075450 55 184 0.0 9.0 0.09 0.21 0.21 85 1024.6
20211129074949 55 236 5.0 10.0 0.09 0.21 0.21 84 1024.6
20211129073950 55 208 1.0 10.0 0.08 0.20 0.20 84 1024.8
20211129072949 55 204 4.0 9.0 0.08 0.18 0.18 83 1024.8
20211129072450 55 203 0.0 9.0 0.08 0.17 0.17 84 1024.8
20211129071950 55 343 1.0 6.0 0.08 0.16 0.16 83 1024.9
20211129071449 55 242 0.0 3.0 0.06 0.15 0.16 83 1024.9
20211129070950 55 203 0.0 6.0 0.06 0.15 0.15 83 1024.9
20211129070449 55 201 0.0 6.0 0.06 0.14 0.14 83 1024.9
20211129065949 55 229 0.0 6.0 0.06 0.14 0.14 83 1024.9
20211129065450 55 252 0.0 5.0 0.06 0.13 0.13 83 1024.9
20211129064949 55 214 2.0 4.0 0.06 0.13 0.13 83 1024.8
20211129064449 55 221 0.0 4.0 0.06 0.12 0.12 83 1024.8
20211129063950 55 235 0.0 2.0 0.06 0.11 0.11 83 1024.7
20211129063449 55 288 0.0 2.0 0.05 0.10 0.11 83 1024.7
20211129062949 55 256 0.0 5.0 0.05 0.10 0.10 83 1024.6
20211129062450 55 324 0.0 5.0 0.04 0.09 0.09 83 1024.4
20211129061949 55 214 0.0 5.0 0.04 0.08 0.08 84 1024.5
20211129061449 55 221 0.0 4.0 0.06 0.08 0.08 83 1024.3
20211129060950 55 0 1.0 4.0 0.06 0.08 0.08 83 1024.3
20211129060449 55 109 0.0 4.0 0.06 0.07 0.08 83 1024.3
20211129055949 55 222 1.0 4.0 0.06 0.07 0.07 83 1024.2
20211129055450 55 198 0.0 6.0 0.06 0.07 0.07 83 1024.2
20211129054949 55 215 1.0 6.0 0.06 0.07 0.07 83 1024.3
20211129054449 55 201 0.0 6.0 0.05 0.06 0.06 83 1024.4
20211129053950 55 198 2.0 5.0 0.05 0.06 0.06 83 1024.3
20211129053449 55 266 1.0 5.0 0.04 0.05 0.05 83 1024.4
20211129052949 55 186 3.0 8.0 0.04 0.05 0.05 83 1024.5
20211129052450 55 172 4.0 8.0 0.04 0.04 0.04 83 1024.4
20211129051949 55 214 0.0 8.0 0.04 0.04 0.04 82 1024.5